Flag for Germany Weather past 2 weeks in Bergisch Gladbach, North Rhine-Westphalia, Germany

Now
61 °F

Scattered showers. Broken clouds.


Feels Like: 61 °F
Forecast: 51 / 63 °F
Wind: 7 mph from Southwest

Location: Koeln / Bonn

Current Time: Aug 31, 2014 at 1:13:24 PM

Latest Report: Aug 31, 2014 at 12:50 PM


Visibility: N/A

Pressure: 29.95 "Hg

Humidity: 83%

Dew point: 55 °F

Location of Bergisch GladbachLocation

Historic Weather in Bergisch Gladbach — Graph

°F

Bergisch Gladbach temperature yesterday

Maximum temperature yesterday: 64 °F (at 11:50 AM)
Minimum temperature yesterday: 57 °F (at 12:20 AM)
Average temperature yesterday: 61 °F

Past Weeks' High & Low Weather Summary

 TemperatureHumidityPressure
High73 °F (Aug 28, 1:20 PM)100% (Aug 20, 7:20 AM)30.09 "Hg (Aug 20, 7:20 AM)
Low45 °F (Aug 20, 5:20 AM)40% (Aug 18, 2:20 PM)29.62 "Hg (Aug 26, 4:50 AM)
Average58 °F79%29.94 "Hg
* Reported Aug 16 11:20 AM — Aug 31 11:50 AM, Bergisch Gladbach, Weather by CustomWeather, © 2014

Note: Actual official high and low records may vary slightly from our data, if they occured in-between our weather recording intervals... More about our weather records

Advertising

Bergisch Gladbach weather history for previous 24 hours

 ConditionsComfort  
Time TempWeatherWind HumidityBarometerVisibility
11:50 AM
Aug 31
61 °FSprinkles. Broken clouds.6 mph88%29.95 "HgN/A
11:20 AM61 °FBroken clouds.5 mph83%29.95 "HgN/A
10:50 AM61 °FBroken clouds.6 mph88%29.98 "HgN/A
10:20 AM59 °FBroken clouds.5 mph88%29.98 "HgN/A
9:50 AM59 °FPartly sunny.7 mph88%29.95 "HgN/A
9:20 AM59 °FPartly sunny.8 mph88%29.95 "HgN/A
8:50 AM59 °FBroken clouds.5 mph94%29.95 "HgN/A
8:20 AM57 °FScattered clouds.3 mph94%29.98 "HgN/A
7:50 AM57 °FScattered clouds.6 mph94%29.98 "HgN/A
7:20 AM57 °FPartly cloudy.7 mph94%29.98 "HgN/A
6:50 AM57 °FPassing clouds.5 mph94%29.98 "HgN/A
6:20 AM55 °FPassing clouds.2 mph100%29.95 "HgN/A
5:50 AM55 °FPassing clouds.1 mph100%29.95 "HgN/A
5:20 AM57 °FPassing clouds.2 mph94%29.95 "HgN/A
4:50 AM57 °FFog.6 mph94%29.95 "HgN/A
4:20 AM57 °FPartly cloudy.5 mph94%29.98 "HgN/A
3:50 AM57 °FPartly cloudy.3 mph94%29.98 "HgN/A
3:20 AM57 °FPartly cloudy.5 mph94%29.98 "HgN/A
2:50 AM57 °FPassing clouds.1 mph94%29.98 "HgN/A
2:20 AM57 °FPartly cloudy.3 mph94%30.01 "HgN/A
1:50 AM57 °FPassing clouds.5 mph94%30.01 "HgN/A
1:20 AM57 °FPassing clouds.6 mph94%30.01 "HgN/A
12:50 AM57 °FLight rain. Partly cloudy.6 mph94%30.01 "HgN/A
12:20 AM57 °FLight rain. Passing clouds.5 mph94%30.01 "HgN/A
11:50 PM
Aug 30
57 °FPartly cloudy.5 mph94%30.04 "HgN/A
11:20 PM57 °FPartly cloudy.5 mph94%30.04 "HgN/A
10:50 PM57 °FLight rain. Partly cloudy.2 mph94%30.01 "HgN/A
10:20 PM57 °FSprinkles. Partly cloudy.7 mph100%30.04 "HgN/A
9:50 PM59 °FRain showers. Partly cloudy.8 mph94%30.04 "Hg6 mi
9:20 PM61 °FRain showers. Broken clouds.1 mph88%30.01 "Hg6 mi
8:50 PM63 °FSprinkles. Broken clouds.8 mph83%30.01 "HgN/A
8:20 PM63 °FSprinkles. Partly sunny.7 mph83%30.01 "HgN/A
7:20 PM64 °FSprinkles. Partly sunny.8 mph78%30.01 "HgN/A
6:50 PM64 °FPartly sunny.8 mph78%30.01 "HgN/A
6:20 PM64 °FPartly sunny.9 mph78%30.01 "HgN/A
5:50 PM64 °FBroken clouds.10 mph73%30.01 "HgN/A
5:20 PM64 °FBroken clouds.7 mph83%30.01 "HgN/A
4:50 PM64 °FBroken clouds.10 mph78%30.01 "HgN/A
4:20 PM63 °FSprinkles. Scattered clouds.8 mph83%30.04 "HgN/A
3:50 PM64 °FSprinkles. Partly sunny.6 mph83%30.01 "HgN/A
3:20 PM64 °FPartly sunny.3 mph83%30.01 "HgN/A
2:20 PM64 °FScattered showers. Partly sunny.2 mph78%30.04 "HgN/A
1:50 PM64 °FScattered showers. Partly sunny.2 mph78%30.04 "HgN/A
1:20 PM64 °FPartly sunny.3 mph78%30.04 "HgN/A
Weather by CustomWeather, © 2014

See weather overviewHow to use our weather pages